[[{"header":{"parameterUnit":"m.s-1","parameterCategory":1,"la1":30.2991,"la2":30.254,"lo1":-89.0895,"lo2":-89.0444,"dy":0.0017,"dx":0.0017,"nx":28,"ny":28,"refTime":"2024-07-10T09:00:00:Z","depth":0,"parameterNumber":2,"parameterNumberName":"U-component_of_WINDS"},"data":[0,0,0,0,0,0,0,0,0,0,0,0,0,0,0,0,0,0,0,0,0,0,0,0,0,0,0,0,0,0,0,0,0,0,0,0,0,0,0,0,0,0,0,0,0,0,0,0,0,0,0,0,0,0,0,0,0,0,0.3784,0.3784,0,0.3822,0.3823,0.3823,0.3803,0.3802,0.3801,0.38,0.384,0.3842,0.3844,0,0,0,0,0,0,0,0,0,0,0,0,0,0.3691,0.3693,0.3784,0.3784,0.3785,0.3822,0.3823,0.3823,0.3804,0.3802,0.3801,0.38,0.384,0.3842,0.3844,0,0,0,0,0,0,0,0,0,0,0,0,0,0.3731,0.3694,0.3784,0.3779,0.3779,0.3822,0.3823,0.3823,0.3804,0.3802,0.3801,0.3799,0.3839,0.3842,0.3845,0.3894,0,0,0.3854,0.3855,0,0,0,0,0,0,0,0,0.3728,0.3734,0.3779,0.378,0.378,0.3806,0.3805,0.3847,0.3804,0.3795,0.38,0.3799,0.383,0.3834,0.3844,0.3896,0.3897,0.3854,0.3856,0.3857,0.3858,0,0,0,0,0,0,0,0.3726,0.3732,0.3799,0.378,0.378,0.3775,0.3779,0.3813,0.3821,0.3795,0.3794,0.3799,0.383,0.3842,0.3845,0.3898,0.3854,0.3857,0.3859,0.386,0.3989,0.3991,0,0,0,0,0,0,0.3723,0.373,0.3798,0.38,0.375,0.3778,0.3782,0.3799,0.382,0.3822,0.38,0.3798,0.3837,0.3842,0.3847,0.3904,0.3857,0.386,0.3862,0.3988,0.3989,0.3991,0,0,0,0,0,0,0.3721,0.373,0.3796,0.3765,0.3773,0.3781,0.3801,0.3801,0.3813,0.3824,0.3825,0.3811,0.3836,0.3842,0.3882,0.3905,0.3861,0.3864,0.3986,0.3988,0.399,0.4021,0,0,0,0,0,0,0.3719,0.3729,0.3748,0.3765,0.3775,0.3831,0.3802,0.3803,0.3818,0.3815,0.3834,0.3836,0.3835,0.3877,0.3885,0.3909,0.3866,0.3984,0.3987,0.399,0.4018,0.4024,0.4029,0,0,0,0,0,0.3716,0.3756,0.375,0.3758,0.3799,0.3833,0.3838,0.3837,0.382,0.3839,0.3846,0.3835,0.3901,0.3882,0.389,0.3915,0.3982,0.3986,0.3989,0.4015,0.4023,0.4029,0,0,0,0,0,0,0.3742,0.3758,0.3751,0.3798,0.3814,0.3829,0.3854,0.3845,0.3867,0.3863,0.3861,0.3866,0.3906,0.3914,0.3892,0.3962,0.3939,0.3944,0.3956,0.3963,0.3969,0.3966,0.3869,0,0,0,0,0,0.3753,0.378,0.3792,0.3832,0.3841,0.3846,0.386,0.3858,0.3875,0.3881,0.3891,0.3907,0.3931,0.3948,0.3971,0.4018,0.4022,0.404,0.4045,0.405,0.4055,0.4079,0.4087,0.4003,0.4003,0.4003,0,0,0.3777,0.3789,0.3806,0.3838,0.385,0.3877,0.3852,0.3881,0.3901,0.3886,0.3923,0.3931,0.3948,0.3992,0.4011,0.4,0.4078,0.4055,0.4059,0.4061,0.4084,0.4092,0.4099,0.4006,0.4005,0.4005,0,0,0.3834,0.3846,0.388,0.3892,0.391,0.3913,0.3921,0.3937,0.3941,0.3979,0.3967,0.399,0.4033,0.4045,0.4057,0.4116,0.4106,0.4123,0.4154,0.4177,0.4184,0.419,0.421,0.4217,0.4128,0.4128,0.4128,0,0.3861,0.3901,0.3899,0.3929,0.3943,0.3929,0.3963,0.3975,0.4,0.4009,0.3996,0.4047,0.4059,0.4104,0.4118,0.4128,0.4136,0.4122,0.4183,0.4189,0.4194,0.4213,0.4221,0.413,0.413,0.413,0.4129,0,0.3933,0.3961,0.3986,0.401,0.4026,0.4058,0.4059,0.4076,0.4072,0.4076,0.4113,0.4125,0.415,0.416,0.4157,0.4204,0.4197,0.4183,0.416,0.4204,0.4222,0.4229,0.4133,0.4132,0.4131,0.4131,0,0,0.401,0.403,0.4039,0.4049,0.4067,0.4088,0.4118,0.4141,0.4155,0.4172,0.4197,0.4232,0.4219,0.4233,0.423,0.4251,0.4295,0.4235,0.4235,0.4245,0.4347,0.4356,0.4365,0.4288,0.429,0.4291,0.4345,0,0.4067,0.412,0.4118,0.4167,0.4192,0.4178,0.4204,0.4218,0.4222,0.4243,0.4246,0.4271,0.4253,0.426,0.428,0.4285,0.4315,0.4281,0.4311,0.4312,0.4307,0.4375,0.4386,0.4436,0.4352,0.4353,0.4354,0,0.4141,0.416,0.4212,0.4224,0.4235,0.4258,0.4278,0.4299,0.4313,0.4314,0.4328,0.4322,0.4351,0.4326,0.4366,0.4343,0.4355,0.4359,0.4361,0.4364,0.4336,0.4379,0.4452,0.446,0.4365,0.4364,0.4363,0,0.4191,0.4229,0.4264,0.4273,0.4289,0.4305,0.4312,0.4325,0.4339,0.4356,0.4365,0.4386,0.4397,0.4413,0.4412,0.4394,0.4452,0.4427,0.4453,0.4453,0.4466,0.4466,0.4543,0.4474,0.4474,0.4474,0.4474,0,0.4255,0.4287,0.4286,0.4308,0.4343,0.4339,0.4374,0.4379,0.439,0.4412,0.4401,0.4422,0.4419,0.444,0.4439,0.4471,0.4477,0.4478,0.4477,0.4479,0.4479,0.4487,0.4483,0.4476,0.4475,0.4475,0.4475,0,0.4316,0.4317,0.4355,0.4366,0.4369,0.4394,0.4403,0.4424,0.4426,0.4453,0.446,0.4463,0.4486,0.4486,0.4513,0.4512,0.4552,0.4548,0.4547,0.4546,0.4572,0.4569,0.4657,0.4668,0.4592,0.4593,0.4594,0,0.4357,0.4381,0.4395,0.4408,0.4416,0.4439,0.4452,0.4449,0.4463,0.448,0.4498,0.452,0.4537,0.4575,0.458,0.46,0.4595,0.4624,0.4598,0.4599,0.4595,0.4594,0.4596,0.463,0.4631,0.4631,0.4632,0,0.4429,0.4428,0.4448,0.4468,0.4484,0.4499,0.4513,0.4525,0.4522,0.4539,0.4562,0.4576,0.4602,0.4624,0.4643,0.465,0.464,0.464,0.4647,0.4649,0.4647,0.4648,0.4561,0.4638,0.4637,0.4637,0.4637,0.4636,0.4481,0.4502,0.4514,0.4535,0.4545,0.4558,0.4577,0.4581,0.4601,0.4622,0.4618,0.4644,0.4656,0.468,0.4688,0.4708,0.4698,0.4708,0.471,0.4713,0.4716,0.4644,0.4711,0.4711,0.4711,0.4711,0.4711,0,0.4552,0.4559,0.4579,0.4599,0.4615,0.4604,0.4619,0.4633,0.4656,0.4668,0.4685,0.4711,0.4732,0.4737,0.4757,0.4771,0.4767,0.4776,0.4775,0.4777,0.4724,0.4716,0.4779,0.4779,0.4779,0.4779,0.4779,0.4779,0.4591,0.4625,0.4624,0.4662,0.4668,0.4693,0.4702,0.4713,0.4722,0.4752,0.4769,0.4772,0.4781,0.48,0.4818,0.4819,0.4827,0.4838,0.4837,0.4788,0.4781,0.4774,0.4766,0.484,0.484,0.4888,0.4889,0.4889]},{"header":{"parameterUnit":"m.s-1","parameterCategory":1,"la1":30.2991,"la2":30.254,"lo1":-89.0895,"lo2":-89.0444,"dy":0.0017,"dx":0.0017,"nx":28,"ny":28,"refTime":"2024-07-10T09:00:00:Z","depth":0,"parameterNumber":3,"parameterNumberName":"V-component_of_WINDS"},"data":[0,0,0,0,0,0,0,0,0,0,0,0,0,0,0,0,0,0,0,0,0,0,0,0,0,0,0,0,0,0,0,0,0,0,0,0,0,0,0,0,0,0,0,0,0,0,0,0,0,0,0,0,0,0,0,0,0,0,3.7979,3.7977,0,3.7864,3.7863,3.7861,3.7841,3.7842,3.7843,3.7844,3.7716,3.7712,3.7708,0,0,0,0,0,0,0,0,0,0,0,0,0,3.817,3.8167,3.7979,3.7977,3.7976,3.7864,3.7863,3.7861,3.7841,3.7842,3.7843,3.7844,3.7718,3.7712,3.7707,0,0,0,0,0,0,0,0,0,0,0,0,0,3.8074,3.8166,3.7979,3.7953,3.7949,3.7865,3.7863,3.7861,3.784,3.7842,3.7843,3.7845,3.7719,3.7713,3.7707,3.7637,0,0,3.7687,3.7684,0,0,0,0,0,0,0,0,3.808,3.8067,3.7958,3.7954,3.795,3.7869,3.7884,3.7785,3.784,3.7881,3.7844,3.7845,3.7765,3.7755,3.773,3.7631,3.7626,3.7686,3.7682,3.768,3.7678,0,0,0,0,0,0,0,3.8087,3.8072,3.7933,3.7956,3.7952,3.7943,3.7931,3.7865,3.7816,3.7878,3.7876,3.7863,3.7763,3.7736,3.7727,3.7624,3.7686,3.7681,3.7677,3.7674,3.7461,3.746,0,0,0,0,0,0,3.8099,3.8078,3.7937,3.793,3.802,3.7939,3.7925,3.7893,3.7817,3.7807,3.7862,3.7863,3.7746,3.7734,3.7722,3.7635,3.768,3.7674,3.767,3.7463,3.7461,3.7459,0,0,0,0,0,0,3.8104,3.8087,3.7941,3.8003,3.7984,3.7934,3.7898,3.789,3.7863,3.7805,3.7795,3.7844,3.7747,3.7731,3.7659,3.763,3.7671,3.7665,3.7465,3.7463,3.746,3.746,0,0,0,0,0,0,3.8109,3.8089,3.8064,3.8003,3.7981,3.7883,3.7896,3.7887,3.7853,3.7853,3.7786,3.7776,3.7747,3.7669,3.7653,3.7622,3.766,3.7468,3.7464,3.7461,3.7462,3.7458,3.7454,0,0,0,0,0,3.8116,3.8067,3.8063,3.8046,3.795,3.7881,3.7868,3.7839,3.7851,3.7824,3.7787,3.7778,3.7637,3.7662,3.7643,3.761,3.7469,3.7465,3.7461,3.7464,3.7459,3.7454,0,0,0,0,0,0,3.8122,3.8058,3.8053,3.7983,3.7939,3.7878,3.7843,3.7834,3.7782,3.7784,3.7747,3.7732,3.7661,3.7629,3.7658,3.7538,3.7553,3.7545,3.7562,3.7556,3.7552,3.756,3.7654,0,0,0,0,0,3.8116,3.8069,3.8015,3.7958,3.7936,3.7894,3.7863,3.7845,3.7795,3.7775,3.7732,3.7682,3.7626,3.759,3.7535,3.7459,3.7442,3.7427,3.7422,3.7419,3.7412,3.7367,3.7358,3.7446,3.7446,3.7446,0,0,3.8101,3.806,3.8032,3.7958,3.7921,3.787,3.7878,3.7823,3.7784,3.7766,3.7695,3.7663,3.7603,3.7529,3.7494,3.7499,3.7384,3.7414,3.7412,3.7406,3.7362,3.7353,3.7346,3.7443,3.7444,3.7444,0,0,3.8048,3.8014,3.7962,3.7926,3.7871,3.7844,3.7832,3.7773,3.7751,3.7681,3.7666,3.7617,3.7522,3.7481,3.7447,3.7379,3.7368,3.7363,3.7339,3.7295,3.7288,3.7282,3.7255,3.7247,3.7356,3.7356,3.7356,0,3.8035,3.7961,3.7936,3.7883,3.7849,3.7835,3.778,3.7745,3.7673,3.7649,3.7658,3.7539,3.7498,3.7412,3.7396,3.737,3.7352,3.7368,3.7292,3.7286,3.7279,3.7253,3.7243,3.7355,3.7356,3.7356,3.7356,0,3.7947,3.7896,3.786,3.7796,3.7758,3.7705,3.7669,3.7633,3.7619,3.759,3.7517,3.7468,3.7403,3.7382,3.7366,3.7293,3.7299,3.73,3.7314,3.7271,3.7246,3.7236,3.7355,3.7355,3.7355,3.7355,0,0,3.7892,3.7816,3.7803,3.7773,3.7712,3.767,3.7615,3.7555,3.7524,3.7476,3.7426,3.7347,3.7348,3.731,3.7289,3.7252,3.7199,3.7258,3.7256,3.7246,3.7113,3.711,3.7099,3.7193,3.7191,3.7189,3.7117,0,3.7829,3.7734,3.771,3.7627,3.7578,3.7563,3.7515,3.7471,3.7442,3.7394,3.7361,3.7305,3.7312,3.7289,3.7251,3.7213,3.7171,3.7219,3.7142,3.714,3.7155,3.7086,3.7083,3.7018,3.7107,3.7106,3.7104,0,3.7743,3.7696,3.761,3.7555,3.7533,3.7491,3.7433,3.7388,3.7337,3.7318,3.7277,3.726,3.7199,3.7219,3.7132,3.7165,3.7133,3.7109,3.7106,3.7095,3.7117,3.7071,3.6996,3.6985,3.7089,3.709,3.7091,0,3.7708,3.7624,3.756,3.7535,3.7471,3.7441,3.7412,3.7362,3.7327,3.7276,3.7252,3.7194,3.7161,3.7115,3.7081,3.7099,3.6996,3.7014,3.6976,3.6977,3.6952,3.6954,3.6868,3.6937,3.6937,3.6937,3.6937,0,3.7639,3.7586,3.7544,3.7505,3.7444,3.7416,3.7355,3.7326,3.7282,3.7234,3.7218,3.7173,3.7133,3.7082,3.7055,3.6986,3.6971,3.6952,3.6945,3.6952,3.6954,3.6928,3.693,3.6934,3.6935,3.6935,3.6936,0,3.7589,3.7559,3.7489,3.7435,3.742,3.7377,3.7328,3.7288,3.7261,3.72,3.7184,3.7139,3.7078,3.7041,3.6963,3.6945,3.6867,3.6864,3.6885,3.6882,3.6845,3.6848,3.6737,3.672,3.6803,3.6802,3.6802,0,3.7545,3.7505,3.7447,3.7415,3.7387,3.7336,3.7301,3.7273,3.7236,3.7175,3.7141,3.708,3.7029,3.6931,3.6889,3.6829,3.6821,3.6787,3.6812,3.682,3.6817,3.6819,3.6814,3.6782,3.6781,3.678,3.678,0,3.7471,3.7458,3.7411,3.7357,3.7317,3.7273,3.7229,3.7203,3.7166,3.7126,3.7065,3.7026,3.6947,3.6885,3.6822,3.6788,3.6776,3.6773,3.6761,3.6765,3.6779,3.6768,3.6871,3.6775,3.6775,3.6776,3.6776,3.6776,3.742,3.7383,3.7336,3.7283,3.7248,3.7207,3.7167,3.7135,3.7085,3.7021,3.7006,3.6941,3.689,3.6804,3.6769,3.6716,3.6721,3.6703,3.6698,3.6694,3.6691,3.6791,3.6704,3.6704,3.6704,3.6704,3.6704,0,3.7342,3.7312,3.7264,3.7204,3.7162,3.716,3.7111,3.7074,3.7018,3.6973,3.6924,3.6853,3.6793,3.6748,3.6686,3.6652,3.6644,3.6636,3.6636,3.6628,3.6692,3.6707,3.6643,3.6643,3.6643,3.6643,3.6643,3.6643,3.7296,3.7232,3.7215,3.7132,3.7101,3.704,3.7012,3.6974,3.6937,3.686,3.6811,3.6784,3.6737,3.6672,3.6616,3.6603,3.658,3.6572,3.6558,3.6617,3.6624,3.663,3.6645,3.6567,3.6567,3.6498,3.6498,3.6497]}]]